Vertical_Velocity
-7 -6 -1 3 5 5 -1 6 11 11 5 6 6 5 2 4 5 6 9 9 8 8 13 19 16 10 3 3 3 3 3 1 1 0 0 0 -1 -1 -1 1 1 1 1 1 1 1 1 1 0 -0 -0 -1 -1 -0 0 0 0 0 0 -0 -0 0 1 1 -0 -1 -2 -2 -2 -2 -1 -2 -2 -2 -2 -1 -1 -1 -2 -2 -1 -1 -0 0 0 0
-2 -2 -1 2 7 8 1 5 10 12 8 7 7 7 7 8 9 11 16 17 15 15 18 19 14 9 7 6 5 4 2 1 0 -0 -0 -0 -1 -2 -2 0 1 1 1 1 1 1 1 1 0 0 0 0 -0 -0 -0 -1 -1 -1 -2 -2 -2 -2 -1 -1 -1 -2 -2 -2 -2 -2 -2 -2 -2 -2 -2 -2 -1 -1 -2 -1 -1 -0 -0 0 0 0
2 1 -0 5 10 10 3 2 5 9 9 7 7 9 11 11 11 13 19 22 22 22 23 19 14 10 11 9 6 3 2 0 -0 -1 -0 -1 -2 -3 -3 -0 1 1 1 1 1 1 2 1 1 1 0 0 0 0 0 -0 -1 -2 -2 -3 -3 -3 -2 -2 -2 -2 -2 -2 -1 -1 -1 -1 -2 -2 -2 -1 -1 -1 -2 -1 -1 -0 0 0 0 0
5 4 2 6 8 6 1 0 1 3 5 5 6 8 10 10 10 12 19 25 28 29 27 19 15 13 13 9 6 3 1 -0 -1 -1 -0 -1 -3 -5 -4 -1 0 1 1 1 1 1 2 2 1 1 1 1 0 0 0 -0 -1 -1 -2 -2 -3 -2 -2 -2 -1 -1 -1 -1 -0 0 -0 -1 -1 -1 -1 -1 -1 -1 -2 -1 -1 -0 0 0 0 0
5 6 5 6 3 -0 -3 -2 -2 -1 -1 1 3 6 9 8 8 10 16 25 31 32 28 19 15 14 13 8 5 2 1 -1 -2 -1 -0 -1 -4 -6 -5 -2 -0 0 0 1 1 1 2 2 2 1 1 1 1 0 0 0 -0 -1 -1 -2 -2 -2 -1 -1 -1 -0 -0 0 0 0 0 -1 -1 -1 -1 -1 -1 -1 -2 -1 -1 -0 0 0 0 0
5 8 9 8 4 -1 -4 -3 -3 -3 -3 -2 1 5 10 9 9 10 12 19 26 29 25 18 15 13 11 7 4 2 -0 -2 -2 -1 -0 -2 -5 -7 -6 -3 -1 -0 -0 0 0 1 2 2 2 2 1 1 1 0 0 0 -0 -1 -1 -1 -1 -1 -1 -0 0 0 1 1 1 1 0 -0 -1 -1 -1 -1 -1 -1 -1 -1 -1 -0 0 0 0 0
1 5 9 7 5 2 0 0 0 0 0 -0 2 5 10 10 10 9 8 11 17 22 20 16 14 12 9 6 4 1 -2 -2 -2 -1 -0 -2 -5 -7 -7 -4 -3 -2 -1 -1 0 1 1 2 2 2 1 1 1 0 0 -0 -0 -1 -1 -1 -1 -1 -0 0 1 1 1 1 1 1 0 0 -0 -1 -1 -1 -1 -1 -1 -1 -0 -0 0 0 1 1
-2 0 3 3 2 1 2 3 5 6 7 7 7 7 8 10 11 10 8 7 10 14 15 14 12 9 5 3 2 -0 -3 -2 -1 -1 -1 -3 -6 -7 -7 -5 -4 -3 -2 -1 -1 0 1 2 2 2 1 1 1 0 0 -0 -1 -1 -1 -1 -1 -0 -0 -0 0 1 1 1 1 1 0 -0 -1 -1 -1 -1 -1 -1 -1 -1 -0 0 0 1 1 1
-0 -0 -0 -0 -0 -0 -1 1 4 7 11 13 14 13 12 13 13 12 11 8 6 6 7 8 7 4 1 1 -0 -2 -3 -2 -0 0 -1 -3 -6 -7 -6 -5 -4 -4 -3 -2 -1 -1 0 1 2 2 1 1 1 0 0 -0 -1 -1 -1 -0 -0 -0 -0 -0 0 0 0 0 0 0 0 -0 -1 -1 -1 -1 -1 -1 -1 -1 -0 0 0 1 1 1
1 1 -0 -1 -2 -2 -2 -3 -3 -0 5 10 15 18 22 22 20 18 15 9 5 3 4 4 4 3 2 2 -0 -2 -2 -0 1 1 -1 -4 -6 -7 -6 -5 -4 -4 -3 -3 -2 -1 0 1 1 2 2 1 1 1 0 -0 -0 -0 -0 -0 0 0 -0 -0 -0 -0 0 0 0 -0 -0 -1 -1 -1 -2 -2 -1 -1 -1 -0 0 0 0 1 1 1
-0 0 -0 -2 -2 -3 -3 -4 -4 -4 -2 2 9 17 25 28 27 24 20 13 9 7 6 5 5 6 6 3 -0 -2 -1 1 1 0 -1 -4 -6 -7 -6 -4 -4 -3 -3 -3 -2 -1 -0 1 1 2 2 1 1 1 0 0 -0 -0 0 0 0 0 0 0 0 0 0 0 -0 -0 -1 -1 -1 -1 -1 -1 -1 -1 -0 0 0 0 1 1 1 1
-1 -1 -1 -2 -2 -3 -3 -3 -2 -2 -3 -2 3 10 17 21 24 26 26 20 16 12 8 7 8 10 7 2 -1 -1 1 2 2 0 -2 -5 -7 -7 -6 -4 -3 -2 -3 -3 -2 -2 -0 1 1 2 2 2 1 1 0 0 0 0 0 0 1 0 0 0 0 0 0 0 -0 -0 -1 -1 -1 -1 -1 -1 -1 -1 -0 0 0 0 1 1 1 1
-2 -2 -2 -2 -2 -3 -3 -2 -1 -2 -3 -3 -2 0 4 10 17 23 27 27 23 17 11 12 13 11 5 1 -0 1 2 3 2 0 -3 -5 -7 -7 -5 -2 -1 -2 -2 -3 -3 -2 -1 1 1 2 2 1 1 0 0 0 0 0 0 1 1 1 1 0 0 0 0 0 -0 -0 -1 -1 -1 -1 -1 -1 -1 -0 0 0 1 1 1 1 1 1
-4 -3 -3 -3 -3 -3 -2 -0 0 -0 -1 -1 -1 -0 3 11 18 23 25 26 22 17 13 14 12 7 2 0 1 2 3 3 2 -0 -3 -6 -7 -7 -4 -2 -1 -1 -2 -2 -3 -2 -1 1 1 2 2 1 1 0 0 -0 -0 0 0 1 1 1 1 0 0 0 0 0 -0 -0 -1 -1 -1 -1 -1 -1 -0 0 1 1 1 1 1 1 1 1
-5 -4 -4 -4 -4 -3 -1 1 3 3 2 2 1 3 7 16 21 23 21 18 13 10 9 9 6 4 2 1 2 4 4 3 1 -1 -4 -6 -7 -6 -4 -1 -1 -1 -2 -2 -2 -2 -1 1 1 2 2 1 1 0 -0 -0 -0 -0 0 1 1 1 1 1 0 0 0 0 -0 -0 -1 -1 -1 -1 -1 -0 -0 0 1 1 1 1 1 0 0 0
-5 -4 -4 -3 -3 -2 -0 3 4 4 2 1 0 3 9 17 19 18 14 10 7 5 3 2 2 2 3 3 4 5 4 3 1 -2 -4 -6 -7 -6 -4 -1 0 -1 -2 -2 -2 -2 -1 0 1 2 2 1 1 0 0 -0 -0 -0 0 0 1 1 1 1 0 0 0 0 -0 -1 -1 -1 -1 -1 -0 -0 0 1 1 1 1 1 0 0 0 0
-5 -4 -3 -2 -1 -1 0 2 3 2 -1 -2 -2 2 10 16 16 14 10 8 6 4 1 -0 0 1 2 4 5 5 4 3 1 -2 -4 -6 -7 -6 -4 0 1 1 -1 -2 -2 -2 -2 -1 1 2 2 1 1 0 -0 -0 -0 0 0 0 1 1 1 1 0 0 0 -0 -0 -1 -1 -1 -1 -0 -0 0 0 1 1 1 1 0 0 0 0 0
-3 -2 -1 -0 -0 0 1 3 2 0 -2 -4 -2 3 10 14 13 10 7 6 4 3 2 3 4 4 4 4 4 4 4 3 1 -1 -4 -7 -7 -7 -4 0 2 1 -0 -1 -2 -2 -2 -1 0 1 2 2 1 0 0 -0 -0 0 0 0 0 1 1 1 0 0 0 -0 -1 -1 -1 -1 -1 -0 -0 0 1 1 1 1 0 0 0 0 0 0
-1 1 3 2 2 2 2 2 1 0 -1 -2 -1 2 7 6 4 1 1 1 1 1 3 7 9 9 7 6 6 6 5 4 2 -1 -5 -7 -8 -6 -4 0 2 2 0 -1 -2 -3 -2 -2 -0 1 2 2 1 1 0 0 0 0 0 0 1 1 1 0 0 0 0 -0 -1 -1 -1 -1 -0 -0 0 0 1 1 1 1 0 0 0 0 1 0
1 2 3 4 3 2 0 -1 -0 1 3 4 4 3 2 -2 -3 -3 -1 -1 -1 1 5 10 12 10 6 6 8 8 5 3 1 -2 -6 -8 -7 -6 -4 -0 2 2 1 -1 -2 -3 -3 -2 -1 1 2 2 1 1 1 0 0 0 0 1 1 1 1 0 0 0 0 -0 -1 -1 -1 -1 -0 0 0 1 1 1 1 0 0 0 0 0 0 0
2 2 2 3 2 0 -2 -3 -1 3 9 10 10 7 3 -0 0 1 1 0 -1 0 5 9 8 5 1 5 7 6 3 2 -1 -3 -7 -7 -7 -6 -5 -1 1 2 1 -1 -2 -3 -3 -2 -1 0 1 1 1 1 1 1 1 1 0 1 1 1 1 1 0 0 0 -0 -1 -1 -1 -1 -0 0 1 1 1 1 0 0 1 1 0 0 0 0
1 0 -0 1 0 -1 -2 -1 3 9 16 17 15 11 6 6 6 6 4 2 1 1 2 1 0 -1 0 4 5 4 1 -0 -2 -4 -6 -8 -8 -7 -6 -2 1 2 1 -0 -2 -2 -3 -2 -2 -1 0 1 1 1 1 1 1 1 0 0 1 1 1 0 0 0 0 -0 -1 -1 -1 -0 0 1 1 1 1 0 0 0 1 1 1 0 1 1
1 1 2 3 3 3 2 5 11 17 23 23 19 14 8 8 8 7 5 4 3 2 -0 -2 -2 -0 3 5 4 2 -0 -2 -3 -5 -7 -9 -9 -8 -6 -1 1 2 1 0 -1 -1 -2 -2 -2 -1 0 0 1 1 2 1 1 1 0 0 0 0 0 0 0 0 0 -0 -0 -1 -1 -0 0 1 1 1 1 0 0 0 1 1 1 0 1 1
3 7 11 11 10 8 8 11 16 21 26 26 23 16 9 7 6 5 4 3 3 2 1 2 3 5 4 3 1 -1 -2 -3 -4 -5 -7 -9 -9 -7 -4 -0 2 3 1 1 0 -0 -2 -2 -2 -1 0 0 1 1 2 1 1 1 0 0 0 0 0 0 0 0 0 -0 -0 -0 -0 -0 0 1 1 1 0 0 0 0 1 1 1 0 0 0
5 11 16 15 11 8 8 10 14 18 21 23 21 16 9 6 4 3 2 2 1 2 3 5 5 4 1 0 -1 -1 -2 -3 -4 -5 -6 -7 -7 -5 -2 0 3 4 2 1 1 0 -1 -2 -2 -1 0 0 1 1 2 2 1 1 0 0 0 0 0 0 0 0 0 0 -0 -0 -0 0 0 1 1 1 0 0 0 0 1 1 1 1 0 0
1 5 9 8 6 5 5 7 9 12 15 17 18 17 16 15 12 8 3 0 -0 1 3 4 2 1 1 1 0 -1 -1 -2 -2 -3 -5 -5 -4 -2 -0 1 3 4 3 2 1 -0 -0 -2 -2 -1 0 0 1 1 2 1 1 1 0 0 0 0 0 0 0 0 0 0 0 -0 -0 0 1 1 1 1 0 0 -0 0 1 1 1 1 0 0
-1 -1 -1 0 2 4 6 6 7 8 9 9 11 13 18 20 18 13 5 -0 -0 3 5 3 2 2 3 2 1 0 -0 -1 -1 -1 -2 -2 -1 -0 1 3 4 4 3 2 1 -0 0 -1 -1 -1 0 0 1 2 2 2 1 1 0 0 0 0 0 0 0 0 0 0 0 0 -0 0 1 1 1 1 0 0 -0 0 1 1 1 1 0 0
-2 -2 -3 -3 -1 1 3 5 5 5 5 4 5 6 10 12 11 8 2 1 3 6 7 4 2 2 3 1 1 1 0 -1 -1 -1 -0 0 -0 -0 1 3 3 3 2 2 1 -1 -0 -1 -1 -1 0 0 1 2 2 2 1 1 0 0 0 0 0 0 0 0 0 0 0 0 0 0 1 1 1 1 0 -0 -0 0 1 1 1 1 1 0
-2 -3 -3 -5 -4 -2 1 3 3 3 3 3 3 4 7 7 6 3 1 3 5 5 4 1 0 0 1 0 0 0 -1 -3 -3 -2 -1 -1 -1 -2 1 3 2 1 2 3 1 -1 -2 -2 -1 0 0 0 1 2 2 2 1 1 1 0 0 0 0 1 1 1 1 1 1 0 0 0 1 1 1 1 0 -0 -0 0 1 1 1 1 1 0
-2 -2 -3 -4 -3 -1 2 3 2 2 2 1 1 2 4 6 5 4 4 4 3 1 -1 -3 -3 -3 -2 -2 -2 -4 -6 -6 -6 -4 -2 -2 -3 -2 1 3 2 1 3 5 3 -1 -4 -3 -0 1 1 1 1 2 2 2 2 1 1 0 0 0 1 1 1 1 1 1 1 1 1 1 1 1 1 1 0 0 0 1 1 1 1 1 1 0
-2 -2 -1 -3 -2 -0 2 2 2 1 0 0 -0 -0 0 2 3 4 4 2 0 -2 -3 -5 -5 -4 -4 -4 -6 -7 -8 -5 -4 -3 -1 -2 -4 -3 2 3 2 2 4 5 3 -1 -4 -2 -0 1 2 2 2 2 2 2 2 1 1 0 0 0 0 1 1 1 1 1 1 1 1 1 1 1 1 1 0 0 1 1 1 1 0 0 0 0
-1 -1 0 -1 -3 -2 -0 1 1 -0 -1 -2 -2 -2 -2 -1 0 2 2 1 -1 -2 -3 -4 -4 -3 -2 -3 -5 -6 -5 -2 -1 -0 -0 -2 -3 -3 1 3 3 2 3 4 3 0 -2 -0 1 1 2 2 2 2 2 2 1 1 0 0 0 0 0 0 1 1 1 1 1 1 1 1 1 1 1 1 1 1 1 1 1 1 0 0 0 0
-1 -0 0 -1 -3 -4 -3 -1 -1 -2 -3 -3 -3 -3 -2 -2 -1 0 1 -0 -1 -2 -2 -2 -1 -1 0 -1 -2 -2 -2 -1 -0 -0 -1 -3 -4 -3 -0 1 2 2 2 3 2 0 -0 1 2 2 1 1 2 2 1 1 1 0 0 0 -0 -0 -0 0 1 1 1 1 1 1 1 0 1 1 1 1 1 1 1 1 1 0 1 1 0 0
0 -0 -1 -2 -4 -5 -6 -5 -4 -4 -4 -3 -3 -3 -3 -2 -1 -0 -0 -1 -2 -3 -3 -2 -1 -1 -0 -1 -2 -2 -2 -0 0 -1 -3 -4 -4 -3 -1 0 1 2 3 2 1 0 1 2 2 2 0 0 1 1 0 0 0 0 0 -0 -0 -0 -0 1 1 1 1 1 1 1 1 1 1 1 1 1 1 1 1 1 1 1 1 1 1 0
2 1 -1 -3 -4 -6 -7 -7 -6 -5 -4 -3 -3 -3 -3 -2 -2 -1 -1 -2 -3 -4 -3 -3 -2 -2 -2 -3 -4 -3 -2 1 -0 -2 -4 -4 -3 -2 -1 -1 -0 2 4 3 2 1 2 2 3 2 1 -0 -0 -1 -0 -0 -0 -0 -0 -0 -1 -0 0 1 1 1 1 2 1 1 1 1 1 1 1 1 1 1 1 1 1 1 1 1 1 0
3 2 1 -1 -2 -3 -4 -5 -5 -4 -4 -3 -3 -3 -3 -3 -3 -3 -3 -4 -4 -4 -4 -4 -3 -3 -4 -4 -5 -4 -2 -1 -2 -4 -4 -3 -1 -1 -1 -2 -1 2 4 2 2 2 3 3 3 2 1 -0 -1 -1 0 0 1 1 -0 -0 -0 0 1 1 1 2 1 2 1 1 1 2 2 2 2 2 2 1 1 1 1 1 1 1 1 0
4 4 3 2 1 0 -0 -2 -3 -3 -3 -3 -3 -3 -3 -3 -4 -4 -5 -5 -5 -5 -4 -4 -4 -4 -4 -4 -4 -4 -3 -3 -4 -4 -3 -2 -0 0 -1 -2 -1 1 3 3 2 2 3 3 2 1 -1 -1 -0 1 2 1 1 1 -0 -0 0 1 1 2 2 2 2 1 1 1 1 1 1 1 1 1 1 1 1 1 1 1 1 1 0 0
4 5 4 3 3 3 2 0 -1 -1 -1 -2 -2 -3 -3 -4 -4 -5 -6 -6 -5 -5 -4 -3 -3 -3 -4 -3 -3 -3 -3 -4 -4 -4 -3 -2 -1 -1 -1 -1 -0 1 3 4 3 2 1 1 0 -1 -2 -1 1 3 3 2 1 1 0 0 1 2 2 2 2 2 2 2 1 1 1 0 0 0 0 0 1 1 1 1 1 1 1 1 0 0
2 4 4 4 4 3 2 1 1 1 1 0 -1 -2 -3 -3 -4 -5 -6 -6 -5 -5 -4 -4 -3 -3 -3 -3 -3 -2 -2 -3 -4 -4 -4 -3 -3 -3 -2 -1 1 2 3 4 3 1 0 0 0 0 1 3 3 3 3 2 1 1 1 1 1 1 1 2 2 2 2 2 2 1 1 1 0 0 0 1 1 1 1 2 2 2 2 1 1 0
1 3 5 6 6 5 4 2 1 2 3 3 2 0 -2 -3 -4 -5 -5 -5 -5 -5 -4 -4 -4 -4 -4 -3 -2 -2 -2 -2 -3 -3 -3 -3 -4 -4 -3 -1 2 3 2 2 1 1 0 0 1 2 3 3 3 3 2 1 1 1 1 1 0 0 2 2 2 2 2 2 2 2 2 1 1 1 1 1 2 2 2 2 2 2 2 1 1 1
2 3 6 8 8 6 3 2 1 2 4 4 3 1 -1 -2 -3 -3 -4 -4 -4 -3 -3 -3 -3 -3 -4 -3 -3 -2 -2 -2 -2 -3 -3 -3 -4 -4 -3 0 2 2 1 0 0 0 1 1 2 2 2 1 1 1 0 0 1 1 1 0 1 2 3 3 2 2 2 2 2 2 2 2 2 2 2 2 2 1 1 1 1 1 1 0 0 0
1 3 6 7 6 4 1 2 3 3 3 3 2 1 -0 -1 -1 -1 -1 -2 -2 -2 -2 -2 -3 -3 -4 -4 -4 -3 -3 -3 -3 -4 -4 -4 -4 -4 -2 1 2 1 0 -0 -0 0 1 1 2 2 1 1 1 0 -1 -1 -0 0 0 1 2 3 3 1 0 1 2 2 2 2 2 2 2 2 2 2 1 1 1 1 0 0 0 0 0 0
1 3 5 4 4 3 4 5 4 3 2 1 0 0 0 1 1 2 1 0 -0 -1 -1 -2 -2 -3 -3 -4 -4 -4 -4 -4 -4 -4 -5 -5 -4 -3 -1 0 1 1 0 0 -0 -0 -0 1 1 2 1 2 1 0 -1 -1 -1 -1 -0 1 1 0 -1 -1 -1 0 1 1 2 2 2 2 2 2 2 1 1 1 1 1 1 1 1 1 1 1
1 1 2 3 4 4 6 4 3 1 -1 -1 -1 -0 1 1 2 2 2 1 1 0 -0 -1 -2 -2 -3 -4 -4 -4 -4 -4 -5 -5 -5 -5 -4 -3 -1 0 0 0 0 0 0 -0 -0 1 1 1 1 2 1 1 -0 -0 -0 -0 1 1 0 -0 -1 1 3 3 3 3 2 3 3 2 2 2 2 1 1 1 1 1 1 1 1 1 1 1
-1 0 2 3 4 5 4 2 1 -0 -1 -2 -1 -0 1 2 2 3 2 2 2 1 0 -1 -1 -2 -3 -4 -4 -4 -4 -4 -5 -5 -5 -5 -4 -3 -1 0 0 -0 -0 0 0 -0 -0 0 1 2 2 1 0 -0 -1 -0 0 1 1 1 1 2 3 4 4 3 3 3 3 3 3 2 2 1 1 1 1 1 1 1 1 1 1 1 1 0
-1 1 3 4 4 3 2 1 1 -0 -1 -2 -2 -1 0 2 2 3 3 3 3 2 0 -1 -1 -2 -3 -3 -3 -2 -3 -4 -5 -5 -6 -5 -4 -2 -1 0 0 -0 -0 -0 -0 -1 -1 -0 0 1 1 0 -0 -1 -1 0 1 2 2 2 2 2 3 2 0 -0 -0 1 2 3 3 2 2 1 0 0 1 1 2 2 1 1 1 0 0 -0
2 3 5 5 4 3 2 1 0 -1 -1 -2 -2 -1 0 1 2 3 4 4 3 3 1 -0 -1 -1 -2 -2 -1 -2 -2 -3 -4 -5 -5 -5 -4 -3 -1 -0 -0 -0 -0 -0 -1 -1 -1 -1 -1 -1 -2 -2 -1 -1 -0 1 2 2 2 2 2 2 2 1 1 1 1 0 0 1 1 1 1 0 0 1 2 2 2 2 1 1 0 0 -0 -0
4 5 6 5 4 3 1 -0 -1 -2 -2 -2 -2 -1 1 1 2 3 3 4 3 3 2 0 -1 -1 -0 -1 -1 -2 -2 -3 -4 -5 -5 -4 -4 -3 -1 -1 -1 -1 -1 -1 -1 -1 -1 -1 -1 -2 -2 -2 -2 -1 0 1 2 2 2 3 3 3 3 2 2 3 3 1 -0 -1 -1 -0 -0 0 1 2 2 2 1 1 1 0 0 -0 -0 -0
4 5 5 4 2 0 -1 -2 -3 -3 -2 -2 -1 1 1 1 2 2 3 3 3 3 3 1 0 0 1 0 -1 -2 -2 -3 -4 -4 -5 -4 -4 -3 -1 -1 -1 -1 -1 -1 -1 -1 -1 -1 -1 -1 -1 -1 -1 -1 -0 0 1 1 2 2 2 2 3 2 2 2 3 2 1 -0 -1 -1 -0 1 2 2 1 1 1 0 0 -0 -0 -0 0 0
3 3 3 2 0 -1 -2 -2 -2 -2 -2 -1 0 1 2 2 2 2 2 3 3 3 2 1 1 1 2 1 -0 -1 -2 -3 -3 -4 -4 -4 -3 -2 -1 -1 -1 -1 -1 -2 -2 -2 -1 -1 -1 -1 -1 -1 -0 -0 -0 -0 -0 -0 -0 -0 0 1 2 1 1 1 2 2 2 1 1 1 0 0 -0 -1 -1 -0 -0 -1 -1 -1 -1 -0 0 0
2 2 2 1 -1 -1 -2 -2 -2 -2 -1 -0 1 2 3 2 1 1 1 2 3 3 2 2 2 2 2 1 -0 -1 -2 -2 -3 -3 -4 -4 -2 -1 -1 -1 -1 -1 -1 -2 -2 -2 -2 -2 -2 -2 -2 -1 -0 1 1 1 0 -0 -1 -1 -0 0 1 0 1 1 2 2 2 2 2 2 1 -0 -1 -2 -2 -2 -2 -1 -1 -1 -0 0 0 0
Height
3060 3060 3061 3062 3062 3063 3064 3066 3066 3066 3066 3067 3067 3067 3067 3068 3068 3068 3068 3069 3069 3070 3071 3072 3072 3071 3070 3070 3071 3071 3072 3074 3076 3078 3079 3079 3080 3080 3081 3082 3084 3085 3085 3086 3086 3086 3086 3086 3086 3086 3086 3086 3086 3086 3086 3086 3086 3086 3086 3086 3086 3086 3085 3085 3085 3085 3085 3085 3085 3085 3085 3085 3085 3085 3085 3086 3086 3086 3086 3086 3086 3086 3086 3087 3087 3087
3056 3056 3056 3057 3059 3060 3060 3062 3063 3063 3063 3063 3064 3064 3064 3064 3065 3065 3065 3066 3066 3066 3067 3069 3068 3067 3067 3068 3068 3069 3069 3072 3074 3075 3076 3077 3077 3078 3079 3080 3081 3082 3083 3084 3084 3085 3085 3085 3084 3084 3084 3085 3085 3085 3085 3085 3085 3085 3085 3085 3085 3084 3084 3084 3083 3083 3083 3083 3084 3084 3084 3084 3084 3085 3085 3085 3085 3085 3085 3085 3085 3085 3086 3086 3086 3087
3053 3053 3053 3054 3055 3056 3056 3057 3058 3059 3059 3059 3060 3060 3061 3061 3061 3062 3062 3064 3064 3064 3064 3065 3064 3064 3065 3065 3065 3066 3067 3070 3072 3073 3074 3074 3075 3075 3077 3078 3079 3080 3081 3082 3082 3083 3083 3083 3083 3083 3083 3083 3083 3083 3083 3083 3083 3083 3083 3083 3083 3083 3082 3082 3082 3082 3082 3082 3083 3083 3083 3083 3084 3084 3084 3084 3084 3084 3084 3085 3085 3085 3085 3085 3086 3086
3049 3050 3049 3050 3051 3051 3052 3053 3054 3055 3055 3056 3056 3057 3057 3058 3058 3059 3059 3060 3061 3061 3062 3061 3061 3061 3062 3062 3062 3063 3065 3068 3070 3071 3072 3072 3072 3073 3075 3076 3077 3079 3080 3080 3080 3081 3081 3081 3081 3081 3081 3081 3081 3081 3081 3081 3081 3081 3081 3081 3081 3081 3081 3081 3081 3081 3081 3081 3082 3082 3082 3082 3082 3083 3083 3083 3083 3083 3083 3084 3084 3084 3084 3085 3085 3085
3046 3046 3046 3047 3047 3047 3048 3049 3050 3051 3051 3052 3053 3054 3054 3055 3055 3055 3057 3058 3059 3059 3059 3059 3059 3059 3060 3060 3060 3061 3064 3066 3068 3069 3069 3070 3070 3071 3072 3074 3075 3077 3078 3078 3079 3079 3079 3079 3079 3079 3079 3079 3079 3079 3080 3080 3080 3080 3080 3080 3080 3080 3080 3080 3080 3080 3080 3080 3081 3081 3081 3081 3081 3082 3082 3082 3082 3082 3082 3083 3083 3083 3084 3084 3084 3085
3044 3044 3044 3044 3044 3044 3045 3045 3046 3047 3048 3049 3050 3050 3051 3051 3052 3053 3054 3055 3056 3057 3057 3056 3056 3057 3057 3057 3058 3060 3062 3064 3065 3066 3067 3068 3068 3069 3070 3072 3074 3075 3076 3076 3077 3077 3077 3077 3077 3077 3077 3077 3077 3078 3078 3078 3078 3078 3078 3078 3078 3078 3078 3078 3078 3079 3079 3079 3080 3080 3080 3080 3080 3080 3081 3081 3081 3081 3081 3082 3082 3082 3083 3083 3084 3084
3040 3041 3041 3041 3041 3041 3042 3042 3043 3044 3045 3045 3046 3047 3048 3048 3049 3050 3050 3051 3053 3054 3054 3054 3054 3055 3055 3055 3056 3058 3060 3062 3063 3064 3065 3065 3066 3067 3069 3070 3072 3073 3074 3075 3075 3075 3075 3075 3075 3075 3075 3075 3076 3076 3076 3076 3076 3076 3076 3076 3076 3076 3076 3077 3077 3077 3078 3078 3078 3079 3079 3079 3079 3079 3080 3080 3080 3080 3080 3081 3081 3081 3082 3082 3083 3084
3037 3037 3038 3038 3038 3038 3039 3040 3041 3042 3042 3042 3042 3043 3044 3045 3046 3047 3047 3049 3050 3051 3051 3051 3051 3052 3052 3053 3055 3056 3058 3059 3060 3061 3063 3063 3064 3065 3067 3068 3070 3071 3072 3072 3073 3073 3073 3073 3073 3074 3074 3074 3074 3074 3074 3075 3075 3075 3075 3075 3075 3075 3075 3075 3075 3076 3076 3076 3077 3077 3077 3078 3078 3078 3078 3078 3079 3079 3079 3080 3080 3080 3081 3081 3082 3083
3034 3034 3034 3035 3035 3035 3036 3037 3038 3039 3040 3039 3039 3039 3040 3041 3042 3044 3045 3046 3047 3047 3047 3048 3048 3049 3050 3051 3052 3054 3055 3056 3058 3059 3060 3061 3062 3063 3065 3066 3068 3069 3070 3070 3071 3071 3071 3071 3072 3072 3072 3072 3072 3072 3073 3073 3073 3073 3073 3073 3073 3073 3074 3074 3074 3074 3075 3075 3075 3076 3076 3076 3076 3077 3077 3077 3077 3078 3078 3079 3079 3080 3080 3081 3081 3082
3031 3031 3031 3031 3032 3033 3033 3033 3033 3035 3036 3036 3036 3036 3037 3038 3039 3040 3041 3041 3042 3043 3044 3044 3045 3045 3046 3048 3050 3051 3052 3054 3055 3057 3058 3059 3060 3061 3063 3064 3065 3066 3068 3068 3069 3069 3069 3070 3070 3070 3070 3070 3070 3071 3071 3071 3071 3071 3072 3072 3072 3072 3072 3072 3072 3073 3073 3073 3074 3074 3075 3075 3075 3075 3076 3076 3076 3077 3077 3078 3078 3079 3079 3080 3080 3081
3028 3028 3029 3029 3029 3029 3030 3030 3030 3030 3032 3032 3033 3034 3035 3035 3036 3036 3037 3037 3038 3039 3040 3041 3041 3042 3043 3045 3047 3049 3050 3051 3053 3055 3056 3057 3058 3059 3061 3062 3063 3064 3065 3066 3067 3067 3067 3068 3068 3068 3068 3069 3069 3069 3069 3069 3070 3070 3070 3070 3070 3070 3070 3071 3071 3071 3071 3072 3072 3073 3073 3074 3074 3074 3074 3075 3075 3075 3076 3076 3077 3078 3078 3079 3080 3080
3025 3025 3025 3026 3026 3027 3027 3027 3027 3028 3028 3029 3030 3031 3032 3033 3034 3034 3034 3034 3035 3035 3036 3037 3038 3039 3040 3042 3044 3046 3048 3049 3051 3052 3053 3054 3055 3057 3059 3060 3061 3062 3063 3064 3065 3065 3065 3065 3066 3066 3066 3067 3067 3067 3067 3068 3068 3068 3068 3069 3069 3069 3069 3069 3070 3070 3070 3070 3071 3071 3072 3072 3072 3073 3073 3074 3074 3074 3075 3075 3076 3077 3077 3078 3079 3079
3023 3023 3023 3023 3024 3024 3025 3025 3025 3025 3025 3026 3026 3027 3028 3029 3031 3032 3033 3032 3032 3032 3033 3034 3035 3037 3039 3040 3042 3043 3045 3047 3048 3050 3051 3052 3053 3055 3057 3058 3059 3060 3061 3061 3062 3063 3063 3063 3064 3064 3065 3065 3065 3065 3065 3066 3066 3066 3066 3067 3067 3067 3067 3068 3068 3068 3069 3069 3070 3070 3070 3071 3071 3071 3072 3072 3073 3073 3074 3075 3075 3076 3076 3077 3078 3078
3020 3021 3021 3021 3021 3022 3022 3023 3023 3023 3023 3023 3023 3024 3025 3027 3028 3030 3030 3030 3030 3030 3031 3032 3033 3035 3037 3039 3040 3041 3043 3045 3046 3047 3048 3050 3051 3053 3055 3056 3057 3058 3058 3059 3060 3060 3061 3061 3062 3062 3063 3063 3063 3063 3064 3064 3064 3065 3065 3065 3065 3065 3066 3066 3066 3067 3067 3068 3068 3069 3069 3070 3070 3070 3071 3071 3072 3072 3073 3073 3074 3075 3075 3076 3077 3077
3018 3018 3019 3019 3019 3020 3020 3020 3020 3020 3020 3021 3021 3022 3024 3025 3026 3027 3027 3027 3027 3028 3029 3030 3032 3033 3035 3036 3038 3039 3040 3042 3043 3045 3046 3047 3049 3051 3052 3054 3055 3055 3056 3057 3057 3058 3059 3059 3060 3060 3060 3061 3061 3061 3062 3062 3062 3063 3063 3063 3063 3064 3064 3065 3065 3065 3066 3066 3067 3067 3068 3068 3069 3069 3070 3070 3070 3071 3072 3072 3073 3074 3075 3075 3076 3076
3015 3016 3016 3016 3017 3017 3017 3018 3018 3018 3018 3019 3019 3019 3020 3022 3023 3024 3024 3024 3025 3025 3027 3028 3030 3031 3033 3034 3035 3037 3038 3040 3040 3042 3044 3045 3047 3049 3050 3052 3053 3054 3054 3054 3055 3055 3056 3057 3057 3058 3058 3059 3059 3060 3060 3060 3060 3061 3061 3061 3062 3062 3062 3063 3063 3064 3064 3065 3065 3066 3066 3067 3067 3068 3068 3069 3069 3070 3070 3071 3072 3073 3073 3074 3075 3075
3013 3013 3013 3014 3014 3015 3015 3015 3015 3015 3016 3016 3016 3017 3018 3020 3020 3021 3021 3022 3023 3024 3025 3026 3027 3028 3030 3032 3033 3035 3036 3037 3038 3040 3041 3043 3045 3046 3048 3050 3051 3051 3052 3052 3052 3053 3054 3054 3055 3056 3056 3057 3057 3058 3058 3058 3059 3059 3059 3060 3060 3060 3061 3061 3062 3062 3063 3063 3064 3064 3065 3065 3066 3066 3067 3067 3068 3069 3070 3070 3071 3071 3072 3073 3074 3075
3010 3010 3011 3011 3011 3012 3012 3012 3013 3013 3013 3013 3014 3015 3017 3018 3019 3019 3019 3020 3021 3022 3023 3024 3025 3026 3027 3029 3031 3032 3034 3035 3036 3037 3039 3041 3043 3044 3046 3047 3049 3049 3050 3050 3050 3050 3051 3052 3053 3054 3054 3055 3055 3055 3056 3056 3057 3057 3057 3058 3058 3059 3059 3060 3060 3060 3061 3062 3062 3063 3063 3064 3065 3065 3065 3066 3067 3068 3068 3069 3070 3070 3071 3072 3073 3073
3007 3008 3008 3008 3008 3009 3009 3009 3010 3010 3010 3010 3011 3013 3015 3016 3016 3016 3017 3018 3019 3020 3022 3023 3025 3025 3026 3027 3029 3030 3032 3033 3034 3035 3037 3039 3040 3042 3044 3045 3046 3047 3047 3048 3048 3048 3049 3050 3050 3051 3052 3053 3053 3054 3054 3054 3055 3055 3055 3056 3056 3057 3057 3058 3058 3059 3060 3060 3061 3061 3062 3062 3063 3064 3064 3065 3065 3066 3067 3068 3068 3069 3070 3071 3072 3072
3005 3005 3005 3005 3005 3005 3005 3006 3006 3007 3008 3008 3009 3011 3012 3012 3012 3013 3014 3016 3018 3019 3021 3022 3023 3024 3025 3026 3027 3028 3029 3030 3031 3033 3035 3036 3038 3040 3041 3043 3044 3045 3045 3045 3045 3045 3046 3047 3048 3049 3050 3050 3051 3051 3052 3052 3053 3053 3054 3054 3055 3055 3055 3056 3057 3057 3058 3059 3059 3060 3060 3061 3061 3062 3063 3064 3064 3065 3066 3066 3067 3068 3069 3070 3070 3071
3002 3002 3002 3002 3002 3002 3003 3003 3004 3005 3006 3007 3007 3008 3009 3009 3010 3011 3013 3014 3016 3018 3020 3021 3021 3022 3022 3023 3024 3025 3027 3028 3029 3030 3032 3034 3035 3037 3039 3040 3041 3042 3043 3043 3043 3043 3044 3045 3046 3047 3047 3048 3049 3049 3050 3050 3051 3051 3052 3052 3053 3053 3054 3054 3055 3055 3056 3057 3057 3058 3059 3059 3060 3061 3061 3062 3063 3064 3065 3065 3066 3067 3068 3069 3070 3070
3000 3000 3000 3000 3000 3000 3000 3001 3003 3004 3005 3005 3005 3005 3006 3007 3008 3010 3011 3013 3014 3016 3017 3018 3019 3019 3020 3021 3022 3023 3024 3025 3027 3028 3030 3031 3033 3034 3036 3038 3039 3040 3040 3041 3041 3041 3042 3042 3043 3044 3045 3046 3046 3047 3048 3048 3049 3049 3050 3050 3051 3051 3052 3053 3053 3054 3055 3055 3056 3056 3057 3058 3059 3059 3060 3061 3061 3062 3063 3064 3065 3066 3067 3068 3068 3069
2997 2998 2998 2999 2999 2999 3000 3001 3002 3003 3004 3005 3005 3005 3005 3006 3007 3009 3010 3011 3012 3014 3014 3015 3016 3017 3018 3019 3020 3021 3022 3023 3025 3026 3027 3029 3030 3032 3034 3035 3036 3037 3038 3038 3039 3039 3039 3040 3041 3042 3043 3043 3044 3045 3045 3046 3046 3047 3048 3048 3049 3050 3050 3051 3051 3052 3053 3053 3054 3055 3055 3056 3057 3058 3059 3059 3060 3061 3062 3063 3064 3065 3065 3066 3067 3068
2995 2996 2997 2998 2998 2998 2999 3000 3001 3002 3003 3004 3005 3004 3004 3005 3006 3007 3008 3009 3010 3010 3011 3012 3013 3014 3015 3016 3017 3018 3020 3021 3022 3024 3025 3026 3028 3030 3031 3033 3034 3035 3035 3036 3036 3037 3037 3038 3039 3039 3040 3041 3041 3042 3043 3044 3044 3045 3045 3046 3047 3047 3048 3049 3050 3050 3051 3051 3052 3053 3054 3055 3055 3056 3057 3058 3059 3060 3060 3061 3062 3063 3064 3065 3066 3067
2993 2994 2995 2995 2995 2995 2996 2998 2999 3000 3001 3002 3003 3003 3002 3003 3004 3005 3005 3006 3006 3007 3008 3010 3010 3011 3012 3014 3015 3016 3017 3019 3020 3022 3023 3025 3026 3028 3029 3030 3031 3032 3033 3034 3034 3034 3035 3035 3036 3037 3037 3038 3039 3040 3040 3041 3042 3043 3043 3044 3045 3045 3046 3047 3048 3048 3049 3050 3050 3051 3052 3053 3054 3055 3055 3056 3057 3058 3059 3060 3061 3062 3063 3064 3065 3065
2991 2992 2992 2992 2992 2993 2993 2995 2996 2997 2998 2999 3000 3001 3001 3002 3002 3002 3002 3002 3003 3004 3005 3006 3008 3009 3010 3011 3012 3014 3015 3017 3019 3020 3021 3023 3024 3025 3027 3028 3029 3030 3030 3031 3032 3032 3032 3033 3034 3034 3035 3035 3036 3037 3038 3039 3040 3040 3041 3042 3043 3043 3044 3045 3046 3046 3047 3048 3049 3050 3050 3051 3052 3053 3054 3055 3055 3057 3058 3059 3060 3061 3062 3063 3063 3064
2989 2989 2990 2990 2990 2991 2991 2992 2992 2993 2994 2995 2996 2997 2998 2999 2999 2999 2999 2999 3000 3002 3003 3004 3005 3006 3008 3009 3010 3012 3014 3015 3017 3018 3019 3020 3022 3024 3025 3026 3026 3027 3028 3029 3029 3030 3030 3030 3031 3032 3032 3033 3034 3035 3036 3036 3037 3038 3039 3040 3040 3041 3042 3043 3044 3045 3045 3046 3047 3048 3048 3049 3050 3051 3052 3053 3054 3055 3056 3057 3059 3060 3060 3061 3062 3063
2986 2987 2988 2988 2989 2989 2989 2990 2990 2991 2991 2992 2993 2993 2994 2995 2995 2995 2995 2997 2998 2999 3000 3001 3003 3004 3006 3007 3009 3010 3012 3013 3014 3016 3017 3018 3020 3021 3023 3024 3024 3024 3025 3026 3026 3027 3027 3028 3029 3029 3030 3030 3031 3032 3033 3034 3035 3036 3036 3037 3038 3039 3040 3041 3042 3042 3043 3044 3045 3046 3047 3048 3049 3050 3050 3051 3053 3054 3055 3056 3057 3058 3059 3060 3061 3061
2984 2985 2985 2986 2986 2987 2987 2988 2988 2989 2989 2990 2991 2991 2992 2992 2992 2992 2993 2995 2996 2997 2998 2999 3000 3002 3004 3005 3006 3008 3009 3010 3011 3013 3014 3015 3017 3019 3020 3021 3021 3022 3022 3023 3024 3024 3025 3025 3026 3027 3027 3028 3029 3030 3031 3032 3032 3033 3034 3035 3036 3037 3038 3039 3040 3040 3041 3042 3043 3044 3045 3046 3047 3048 3049 3050 3051 3052 3053 3055 3056 3057 3058 3059 3059 3060
2981 2982 2983 2983 2984 2984 2985 2985 2986 2986 2987 2988 2989 2990 2990 2990 2991 2991 2992 2993 2993 2994 2995 2997 2998 3000 3001 3003 3004 3005 3006 3008 3009 3010 3011 3013 3014 3016 3018 3018 3019 3019 3020 3020 3021 3021 3022 3023 3023 3024 3025 3026 3027 3027 3028 3029 3030 3031 3032 3033 3034 3035 3036 3037 3037 3038 3039 3040 3041 3042 3043 3044 3045 3046 3047 3048 3050 3050 3052 3053 3054 3055 3056 3057 3058 3059
2979 2979 2980 2980 2981 2981 2982 2982 2983 2984 2985 2985 2986 2987 2988 2989 2989 2990 2990 2991 2991 2992 2994 2995 2996 2998 2999 3000 3002 3003 3004 3006 3007 3008 3009 3010 3011 3013 3015 3016 3016 3017 3018 3018 3018 3018 3019 3020 3021 3021 3022 3023 3024 3025 3026 3027 3028 3029 3030 3030 3032 3033 3034 3035 3035 3036 3037 3038 3039 3040 3041 3042 3043 3044 3045 3047 3048 3049 3050 3052 3053 3054 3055 3055 3056 3057
2976 2976 2977 2978 2978 2979 2979 2980 2981 2981 2982 2983 2984 2984 2985 2986 2986 2987 2988 2989 2990 2991 2992 2993 2995 2996 2998 2999 3000 3001 3003 3004 3005 3006 3007 3008 3009 3010 3012 3013 3014 3014 3015 3015 3015 3015 3016 3017 3018 3019 3020 3020 3022 3023 3024 3024 3025 3026 3027 3028 3029 3030 3031 3032 3033 3034 3035 3036 3037 3038 3039 3040 3041 3043 3044 3045 3046 3048 3049 3050 3051 3052 3053 3054 3055 3056
2973 2974 2974 2975 2975 2976 2977 2978 2979 2979 2980 2980 2981 2982 2982 2983 2984 2985 2986 2987 2989 2990 2990 2992 2993 2995 2996 2997 2998 3000 3001 3002 3003 3004 3004 3005 3006 3008 3010 3010 3011 3011 3012 3012 3012 3013 3014 3015 3015 3016 3017 3018 3019 3020 3021 3022 3023 3024 3025 3026 3027 3028 3029 3030 3031 3032 3033 3034 3035 3036 3037 3038 3040 3041 3042 3043 3045 3046 3047 3048 3050 3051 3052 3053 3054 3055
2971 2971 2972 2972 2973 2974 2975 2975 2976 2977 2977 2978 2979 2979 2980 2981 2982 2983 2985 2986 2987 2988 2989 2990 2991 2993 2994 2995 2996 2997 2998 3000 3000 3001 3001 3002 3004 3005 3007 3008 3009 3009 3009 3010 3010 3010 3011 3012 3013 3014 3014 3015 3016 3017 3018 3019 3020 3021 3022 3023 3025 3025 3027 3028 3029 3030 3031 3032 3033 3034 3035 3036 3038 3039 3040 3042 3043 3045 3046 3047 3048 3049 3050 3051 3052 3053
2968 2968 2969 2970 2970 2971 2972 2973 2974 2974 2975 2975 2976 2977 2978 2979 2980 2981 2983 2984 2985 2986 2987 2988 2990 2990 2992 2993 2994 2995 2996 2997 2998 2998 2999 3000 3001 3003 3004 3005 3006 3006 3006 3007 3007 3008 3008 3009 3010 3011 3011 3012 3013 3014 3015 3016 3017 3019 3020 3021 3022 3023 3024 3025 3026 3028 3029 3030 3031 3032 3033 3035 3036 3037 3039 3040 3041 3043 3044 3045 3046 3048 3049 3050 3051 3052
2965 2966 2966 2967 2968 2969 2969 2970 2971 2972 2972 2973 2974 2975 2976 2977 2978 2980 2981 2982 2983 2984 2985 2986 2987 2989 2990 2990 2991 2992 2994 2995 2995 2995 2996 2998 2999 3000 3001 3003 3003 3004 3004 3004 3004 3005 3005 3006 3007 3008 3009 3010 3010 3012 3013 3014 3015 3016 3017 3019 3020 3021 3022 3023 3025 3025 3027 3028 3029 3030 3031 3033 3034 3035 3037 3038 3040 3041 3042 3044 3045 3046 3047 3048 3049 3050
2962 2963 2964 2964 2965 2966 2967 2967 2968 2969 2970 2971 2972 2973 2974 2975 2977 2978 2979 2980 2981 2982 2983 2985 2985 2986 2987 2988 2989 2990 2991 2992 2992 2993 2994 2995 2997 2998 2999 3000 3000 3001 3001 3001 3001 3002 3003 3003 3004 3005 3006 3007 3008 3009 3010 3011 3013 3014 3015 3016 3018 3019 3020 3021 3022 3023 3025 3026 3027 3028 3030 3031 3032 3034 3035 3037 3038 3040 3041 3042 3043 3045 3045 3047 3048 3049
2959 2960 2961 2962 2963 2964 2964 2965 2966 2967 2968 2969 2970 2971 2973 2974 2975 2976 2978 2979 2980 2980 2981 2982 2983 2984 2985 2986 2987 2988 2988 2989 2990 2991 2992 2993 2994 2995 2996 2997 2998 2998 2998 2998 2998 2999 3000 3000 3001 3002 3003 3004 3005 3007 3008 3009 3010 3012 3013 3014 3015 3017 3018 3019 3020 3021 3022 3024 3025 3026 3027 3029 3030 3032 3033 3035 3036 3038 3039 3040 3042 3043 3044 3045 3046 3047
2956 2957 2958 2959 2960 2961 2962 2962 2963 2965 2966 2967 2968 2970 2971 2972 2973 2975 2975 2976 2977 2978 2979 2980 2981 2982 2983 2984 2985 2985 2986 2987 2987 2988 2989 2990 2991 2992 2993 2994 2995 2995 2995 2995 2995 2996 2997 2997 2998 3000 3000 3002 3003 3004 3005 3007 3008 3010 3011 3012 3013 3015 3016 3017 3018 3019 3020 3022 3023 3024 3025 3027 3028 3030 3031 3033 3035 3036 3038 3039 3040 3041 3042 3043 3045 3045
2953 2954 2955 2956 2957 2958 2959 2960 2961 2962 2964 2965 2966 2967 2968 2969 2970 2972 2973 2974 2975 2976 2977 2978 2979 2980 2980 2981 2982 2983 2984 2985 2985 2986 2987 2988 2989 2990 2990 2991 2992 2992 2992 2992 2992 2993 2994 2995 2996 2997 2998 2999 3000 3002 3003 3004 3005 3007 3008 3009 3010 3012 3014 3015 3016 3017 3018 3020 3021 3022 3024 3025 3027 3028 3030 3031 3033 3035 3036 3037 3039 3040 3041 3042 3043 3044
2950 2951 2952 2953 2954 2955 2956 2957 2958 2960 2961 2962 2963 2964 2965 2966 2967 2969 2970 2971 2972 2974 2975 2975 2976 2977 2978 2979 2980 2980 2981 2982 2983 2984 2985 2985 2986 2987 2987 2988 2989 2989 2989 2989 2990 2990 2991 2992 2993 2994 2995 2996 2998 2999 3000 3002 3003 3004 3005 3007 3009 3010 3011 3013 3014 3015 3016 3018 3019 3020 3022 3024 3025 3027 3028 3030 3031 3033 3034 3035 3037 3038 3039 3040 3041 3042
2946 2948 2949 2950 2951 2952 2953 2954 2955 2956 2958 2959 2960 2960 2961 2963 2964 2965 2967 2968 2969 2971 2972 2973 2974 2975 2975 2976 2977 2978 2979 2980 2980 2981 2982 2983 2983 2984 2985 2985 2986 2986 2986 2986 2987 2988 2989 2990 2990 2992 2993 2994 2995 2996 2998 2999 3000 3002 3003 3005 3006 3008 3009 3010 3011 3013 3014 3016 3017 3019 3020 3022 3024 3025 3027 3028 3030 3031 3032 3034 3035 3036 3037 3038 3040 3040
2942 2944 2945 2946 2948 2949 2950 2951 2952 2953 2955 2955 2956 2957 2959 2960 2961 2962 2964 2965 2966 2968 2969 2970 2971 2972 2973 2974 2975 2976 2977 2977 2978 2979 2980 2980 2981 2981 2982 2982 2983 2983 2983 2984 2984 2985 2986 2987 2988 2989 2990 2991 2993 2994 2995 2996 2998 2999 3001 3002 3004 3005 3006 3008 3009 3011 3012 3014 3015 3017 3019 3020 3022 3024 3025 3027 3028 3030 3031 3032 3033 3035 3036 3037 3038 3039
2939 2940 2942 2943 2944 2945 2947 2948 2949 2950 2951 2952 2953 2955 2956 2957 2958 2959 2960 2962 2963 2965 2966 2967 2968 2969 2970 2971 2972 2973 2974 2975 2976 2976 2977 2978 2978 2979 2979 2980 2980 2980 2980 2981 2982 2983 2984 2985 2986 2987 2988 2989 2990 2991 2993 2994 2996 2997 2999 3000 3001 3003 3004 3006 3008 3009 3010 3012 3014 3015 3017 3019 3020 3022 3023 3025 3026 3028 3029 3030 3032 3033 3034 3035 3036 3037
2934 2936 2938 2940 2941 2942 2943 2944 2945 2947 2948 2949 2950 2952 2953 2954 2955 2956 2958 2959 2960 2962 2963 2964 2965 2966 2967 2968 2970 2971 2971 2972 2973 2974 2975 2975 2976 2976 2977 2977 2977 2978 2978 2979 2980 2980 2981 2982 2984 2985 2986 2987 2988 2989 2991 2992 2994 2995 2997 2998 3000 3001 3003 3004 3005 3007 3009 3010 3012 3014 3015 3017 3018 3020 3022 3023 3025 3026 3028 3029 3030 3032 3033 3034 3035 3036
2930 2932 2934 2936 2937 2939 2940 2941 2942 2944 2945 2946 2947 2949 2950 2951 2952 2953 2955 2956 2957 2959 2960 2961 2962 2963 2965 2966 2967 2968 2969 2970 2970 2971 2972 2973 2973 2974 2974 2975 2975 2975 2976 2976 2977 2978 2979 2980 2981 2982 2983 2984 2985 2987 2989 2990 2991 2993 2995 2996 2997 2999 3000 3002 3003 3005 3006 3008 3010 3012 3013 3015 3016 3018 3020 3022 3023 3025 3026 3027 3029 3030 3031 3032 3033 3034
2927 2929 2931 2932 2934 2935 2936 2938 2939 2940 2941 2943 2944 2945 2947 2948 2949 2950 2952 2953 2955 2956 2957 2958 2959 2960 2962 2963 2965 2965 2966 2967 2968 2969 2969 2970 2971 2971 2972 2972 2972 2973 2974 2974 2975 2976 2977 2978 2979 2980 2980 2982 2983 2985 2986 2988 2990 2991 2992 2994 2995 2997 2998 3000 3001 3003 3005 3006 3008 3010 3011 3013 3015 3017 3018 3020 3022 3023 3025 3026 3027 3028 3029 3030 3031 3032
2924 2925 2927 2929 2930 2931 2933 2934 2935 2937 2938 2940 2941 2942 2944 2945 2946 2948 2949 2950 2952 2953 2954 2955 2956 2958 2959 2961 2962 2963 2964 2964 2965 2966 2966 2967 2968 2969 2969 2970 2970 2970 2971 2972 2973 2974 2975 2975 2976 2977 2978 2980 2981 2983 2985 2986 2987 2989 2990 2992 2993 2995 2996 2998 3000 3001 3003 3004 3006 3007 3009 3011 3013 3015 3017 3018 3020 3021 3023 3024 3025 3026 3028 3029 3030 3031
2920 2922 2923 2925 2926 2928 2929 2930 2932 2933 2935 2936 2938 2939 2941 2942 2944 2945 2946 2948 2949 2950 2951 2952 2954 2955 2957 2958 2959 2960 2961 2961 2962 2963 2964 2964 2965 2966 2967 2967 2968 2968 2969 2970 2970 2971 2972 2973 2974 2975 2977 2978 2980 2981 2982 2984 2985 2987 2988 2990 2991 2993 2995 2996 2998 2999 3001 3003 3004 3006 3008 3010 3012 3014 3015 3016 3018 3020 3021 3022 3024 3025 3026 3027 3028 3029
2916 2917 2919 2921 2922 2924 2925 2927 2929 2930 2931 2933 2935 2936 2938 2939 2941 2942 2943 2945 2946 2947 2948 2950 2951 2953 2954 2955 2956 2957 2958 2959 2960 2960 2961 2962 2962 2963 2964 2965 2965 2966 2966 2967 2968 2969 2970 2971 2972 2974 2975 2976 2978 2979 2980 2982 2983 2984 2986 2987 2989 2991 2992 2994 2995 2997 3000 3001 3003 3005 3006 3008 3010 3011 3013 3015 3016 3018 3019 3020 3022 3023 3024 3025 3026 3027
2911 2913 2915 2917 2919 2920 2922 2924 2925 2927 2928 2930 2932 2933 2935 2936 2938 2939 2940 2942 2943 2945 2946 2947 2949 2950 2951 2953 2954 2955 2955 2956 2957 2958 2958 2959 2960 2960 2961 2962 2963 2963 2964 2965 2966 2967 2968 2969 2970 2971 2973 2974 2976 2977 2979 2980 2981 2982 2984 2985 2987 2989 2990 2992 2994 2996 2998 3000 3001 3003 3005 3007 3008 3010 3011 3013 3015 3016 3017 3019 3020 3021 3022 3024 3025 3026